World > North America > United States > California
Hourly Weather in El Portal, CaliforniaEl Portal, California Hourly Weather

El Portal, CA Hourly Weather

Hourly Weather El Portal, CaliforniaHourly Weather in El Portal, CA
Lat: 37.68N, Lon: 119.78W  ICAO: KMER
Web Search

Did you know? You can add this page to Bookmarks by pressing the Ctrl key & d key at the same time. Mac users press command & d.

Feedback

El Portal Hourly Weather

36 Hour Weather Scroll   °F Click to change El Portal hourly weather to Imperial units.Click to change El Portal hourly weather to Metric units. °C
Currently, Clear, temperature is 50°F10°C, dew point 37°F3°C, humidity 62%. Wind direction is ESE at 6 mph10 km/h with visibility of 10.00 mi16 km. Barometric pressure is 29 in982 mb.

Oct 17
2:00 AM

Oct 17
3:00 AM

Oct 17
4:00 AM

Oct 17
5:00 AM

Oct 17
6:00 AM

Oct 17
7:00 AM

Oct 17
8:00 AM

Oct 17
9:00 AM

Oct 17
10:00 AM

Oct 17
11:00 AM

Oct 17
NOON

Oct 17
1:00 PM

Oct 17
2:00 PM

Oct 17
3:00 PM

Oct 17
4:00 PM

Oct 17
5:00 PM

Oct 17
6:00 PM

Oct 17
7:00 PM

Oct 17
8:00 PM

Oct 17
9:00 PM

Oct 17
10:00 PM

Oct 17
11:00 PM

Oct 18
MIDNIGHT

Oct 18
1:00 AM

Oct 18
2:00 AM

Oct 18
3:00 AM

Oct 18
4:00 AM

Oct 18
5:00 AM

Oct 18
6:00 AM

Oct 18
7:00 AM

Oct 18
8:00 AM

Oct 18
9:00 AM

Oct 18
10:00 AM

Oct 18
11:00 AM

Oct 18
NOON

Oct 18
1:00 PM
Clear Clear Clear Clear Clear Clear Clear Clear Clear Clear Clear Clear Clear Clear Partly Cloudy Partly Cloudy Partly Cloudy Cloudy Cloudy Cloudy Cloudy Cloudy Cloudy Cloudy Cloudy Cloudy Cloudy Cloudy Cloudy Partly Cloudy Partly Cloudy Partly Cloudy Clear Clear Clear Clear
Clear Clear Clear Clear Clear Clear Clear Clear Clear Clear Clear Clear Clear Clear Partly Cloudy Partly Cloudy Partly Cloudy Cloudy Cloudy Cloudy Cloudy Cloudy Cloudy Cloudy Cloudy Cloudy Cloudy Cloudy Cloudy Partly Cloudy Partly Cloudy Partly Cloudy Clear Clear Clear Clear
53°F12°C 52°F11°C 51°F11°C 50°F10°C 51°F11°C 51°F11°C 52°F11°C 58°F14°C 64°F18°C 70°F21°C 74°F23°C 77°F25°C 81°F27°C 80°F27°C 80°F27°C 79°F26°C 74°F23°C 69°F21°C 64°F18°C 61°F16°C 58°F14°C 55°F13°C 53°F12°C 51°F11°C 49°F9°C 49°F9°C 48°F9°C 48°F9°C 48°F9°C 48°F9°C 48°F9°C 52°F11°C 57°F14°C 61°F16°C 63°F17°C 66°F19°C
- - - - - - - - - - - - - - - - Rain Rain Rain Rain Rain Rain Rain Rain Rain Rain Rain Rain - - - - - - - -
0% 0% 0% 0% 0% 0% 0% 0% 0% 0% 0% 0% 0% 0% 0% 0% 35% 35% 35% 35% 35% 35% 59% 59% 59% 59% 59% 59% 17% 17% 17% 17% 17% 17% 0% 0%
42°F6°C 42°F6°C 42°F6°C 42°F6°C 43°F6°C 43°F6°C 44°F7°C 43°F6°C 42°F6°C 41°F5°C 39°F4°C 37°F3°C 35°F2°C 35°F2°C 35°F2°C 35°F2°C 37°F3°C 39°F4°C 41°F5°C 42°F6°C 43°F6°C 44°F7°C 44°F7°C 44°F7°C 44°F7°C 44°F7°C 44°F7°C 44°F7°C 45°F7°C 45°F7°C 46°F8°C 47°F8°C 48°F9°C 49°F9°C 47°F8°C 46°F8°C
66% 69% 71% 74% 74% 74% 74% 57% 45% 35% 28% 24% 19% 20% 20% 20% 26% 33% 43% 50% 57% 66% 71% 77% 83% 83% 86% 86% 89% 89% 93% 83% 72% 65% 56% 48%
E ESE SE SE SE SSE SSE SSE SSE S S S S S S S SW W NW SW SSE E SSE SSW NW NW WNW W W W SSW W NW NNW NNW NNW
4 mph 4 mph 1 mph 1 mph 1 mph 3 mph 3 mph 3 mph 12 mph 12 mph 12 mph 11 mph 11 mph 11 mph 18 mph 18 mph 18 mph 15 mph 15 mph 15 mph 7 mph 7 mph 7 mph 5 mph 5 mph 5 mph 3 mph 3 mph 3 mph 1 mph 1 mph 1 mph 5 mph 5 mph 5 mph 10 mph
10 mi16 km 10 mi16 km 10 mi16 km 10 mi16 km 10 mi16 km 10 mi16 km 10 mi16 km 10 mi16 km 10 mi16 km 10 mi16 km 10 mi16 km 10 mi16 km 10 mi16 km 10 mi16 km 10 mi16 km 10 mi16 km 10 mi16 km 10 mi16 km 10 mi16 km 10 mi16 km 10 mi16 km 10 mi16 km 10 mi16 km 10 mi16 km 10 mi16 km 10 mi16 km 10 mi16 km 10 mi16 km 10 mi16 km 10 mi16 km 10 mi16 km 10 mi16 km 10 mi16 km 10 mi16 km 10 mi16 km 10 mi16 km
Hour (PDT)
Weather
Clouds
Temperature
Precip. Type
POP
Dewpoint
Humidity
Wind Direction
Wind Speed
Visibility
POP = Probability of Precipitation. ** Indicates missing data/values from model statistics.

24 Hour Forecast

Today - Sunny. Haze in the afternoon. Highs 95 to 105.
Tonight - Mostly clear. Areas of smoke in the evening. Haze through the night. Lows 71 to 81.

48 Hour Forecast API Feed


Sun, Oct 17
2:00 am

Sun, Oct 17
3:00 am

Sun, Oct 17
4:00 am

Sun, Oct 17
5:00 am

Sun, Oct 17
6:00 am

Sun, Oct 17
7:00 am

Sun, Oct 17
8:00 am

Sun, Oct 17
9:00 am

Sun, Oct 17
10:00 am

Sun, Oct 17
11:00 am

Sun, Oct 17
Noon

Sun, Oct 17
1:00 pm

Sun, Oct 17
2:00 pm

Sun, Oct 17
3:00 pm

Sun, Oct 17
4:00 pm

Sun, Oct 17
5:00 pm

Sun, Oct 17
6:00 pm

Sun, Oct 17
7:00 pm

Sun, Oct 17
8:00 pm

Sun, Oct 17
9:00 pm

Sun, Oct 17
10:00 pm

Sun, Oct 17
11:00 pm

Mon, Oct 18
Midnight

Mon, Oct 18
1:00 am

Mon, Oct 18
2:00 am

Mon, Oct 18
3:00 am

Mon, Oct 18
4:00 am

Mon, Oct 18
5:00 am

Mon, Oct 18
6:00 am

Mon, Oct 18
7:00 am

Mon, Oct 18
8:00 am

Mon, Oct 18
9:00 am

Mon, Oct 18
10:00 am

Mon, Oct 18
11:00 am

Mon, Oct 18
Noon

Mon, Oct 18
1:00 pm

Mon, Oct 18
2:00 pm

Mon, Oct 18
3:00 pm

Mon, Oct 18
4:00 pm

Mon, Oct 18
5:00 pm

Mon, Oct 18
6:00 pm

Mon, Oct 18
7:00 pm

Mon, Oct 18
8:00 pm

Mon, Oct 18
9:00 pm

Mon, Oct 18
10:00 pm

Mon, Oct 18
11:00 pm

Tue, Oct 19
Midnight

Tue, Oct 19
1:00 am
ClearClearClearClearClearClearSunnyOvercastPartly CloudySunnyOvercastCloudySunnySunnySunnySunnySunnyPartly CloudyCloudyOvercastOvercastPartly CloudyModerate Or Heavy Rain With ThunderFogHeavy RainPatchy Light RainPatchy Rain PossibleModerate Rain At TimesPartly CloudyClearSunnySunnySunnySunnySunnySunnySunnySunnySunnySunnySunnyClearClearClearClearClearClearClear
Clear Clear Clear Clear Clear Clear Sunny Overcast Partly cloudy Sunny Overcast Cloudy Sunny Sunny Sunny Sunny Sunny Partly cloudy Cloudy Overcast Overcast Partly cloudy Moderate rain with thunder Fog Heavy rain Patchy light rain Patchy rain possible Moderate rain at times Partly cloudy Clear Sunny Sunny Sunny Sunny Sunny Sunny Sunny Sunny Sunny Sunny Sunny Clear Clear Clear Clear Clear Clear Clear
44°F
7°C
43°F
6°C
43°F
6°C
42°F
6°C
42°F
6°C
42°F
5°C
44°F
7°C
65°F
18°C
68°F
20°C
70°F
21°C
70°F
21°C
70°F
21°C
71°F
22°C
72°F
22°C
70°F
21°C
67°F
20°C
62°F
17°C
50°F
10°C
42°F
5°C
48°F
9°C
48°F
9°C
47°F
8°C
46°F
8°C
43°F
6°C
42°F
6°C
40°F
4°C
39°F
4°C
35°F
2°C
34°F
1°C
33°F
1°C
37°F
3°C
44°F
7°C
48°F
9°C
51°F
11°C
53°F
12°C
55°F
13°C
55°F
13°C
56°F
13°C
56°F
13°C
54°F
12°C
47°F
8°C
33°F
1°C
30°F
-1°C
29°F
-1°C
29°F
-2°C
29°F
-2°C
29°F
-2°C
29°F
-2°C
9°F
-13°C
7°F
-14°C
6°F
-14°C
6°F
-15°C
5°F
-15°C
5°F
-15°C
7°F
-14°C
17°F
-9°C
17°F
-9°C
17°F
-8°C
17°F
-8°C
17°F
-8°C
17°F
-8°C
20°F
-7°C
21°F
-6°C
24°F
-4°C
28°F
-2°C
27°F
-3°C
28°F
-2°C
36°F
2°C
39°F
4°C
40°F
5°C
42°F
6°C
43°F
6°C
41°F
5°C
38°F
3°C
37°F
3°C
33°F
1°C
31°F
-1°C
29°F
-2°C
32°F
-0°C
33°F
1°C
35°F
2°C
35°F
2°C
34°F
1°C
34°F
1°C
33°F
1°C
33°F
1°C
34°F
1°C
35°F
2°C
35°F
1°C
25°F
-4°C
22°F
-5°C
21°F
-6°C
20°F
-7°C
20°F
-7°C
19°F
-7°C
18°F
-8°C
30 in
1016 mb
29.97 in
1015 mb
29.97 in
1015 mb
29.94 in
1014 mb
29.94 in
1014 mb
29.94 in
1014 mb
29.94 in
1014 mb
29.91 in
1013 mb
29.91 in
1013 mb
29.88 in
1012 mb
29.88 in
1012 mb
29.85 in
1011 mb
29.83 in
1010 mb
29.8 in
1009 mb
29.8 in
1009 mb
29.8 in
1009 mb
29.8 in
1009 mb
29.85 in
1011 mb
29.88 in
1012 mb
29.91 in
1013 mb
29.91 in
1013 mb
29.91 in
1013 mb
29.88 in
1012 mb
29.91 in
1013 mb
29.94 in
1014 mb
29.97 in
1015 mb
30 in
1016 mb
30.03 in
1017 mb
30.06 in
1018 mb
30.06 in
1018 mb
30.06 in
1018 mb
30.03 in
1017 mb
30.03 in
1017 mb
30 in
1016 mb
29.97 in
1015 mb
29.97 in
1015 mb
29.94 in
1014 mb
29.94 in
1014 mb
29.91 in
1013 mb
29.94 in
1014 mb
29.97 in
1015 mb
30 in
1016 mb
30.03 in
1017 mb
30.06 in
1018 mb
30.06 in
1018 mb
30.06 in
1018 mb
30.06 in
1018 mb
30.06 in
1018 mb
23%22%21%21%21%22%21%15%14%13%13%13%13%14%15%19%27%40%57%63%71%77%88%98%97%93%92%91%88%85%80%66%59%55%49%45%43%42%43%48%62%72%73%71%69%67%66%65%
ENEENEENEENEENEEESSESSSWSSSSSSSSSWSSWSSWSWSSESSWWSWWNNWNEENEENEENEENENEWWWWWWWWWNWNEENEENEENEENEENEENE
7 mph
12 km/h
7 mph
12 km/h
7 mph
12 km/h
7 mph
12 km/h
7 mph
12 km/h
7 mph
12 km/h
6 mph
10 km/h
4 mph
7 km/h
8 mph
13 km/h
10 mph
17 km/h
12 mph
19 km/h
13 mph
21 km/h
15 mph
24 km/h
16 mph
25 km/h
16 mph
26 km/h
15 mph
24 km/h
13 mph
21 km/h
7 mph
12 km/h
3 mph
4 km/h
3 mph
5 km/h
4 mph
6 km/h
5 mph
8 km/h
7 mph
11 km/h
5 mph
9 km/h
6 mph
9 km/h
2 mph
4 km/h
4 mph
6 km/h
4 mph
7 km/h
5 mph
8 km/h
6 mph
9 km/h
5 mph
8 km/h
2 mph
3 km/h
2 mph
4 km/h
4 mph
6 km/h
5 mph
9 km/h
6 mph
10 km/h
6 mph
10 km/h
6 mph
9 km/h
5 mph
8 km/h
5 mph
8 km/h
3 mph
5 km/h
3 mph
5 km/h
5 mph
9 km/h
6 mph
10 km/h
6 mph
10 km/h
6 mph
10 km/h
6 mph
10 km/h
6 mph
10 km/h
0%0%0%0%0%0%0%0%0%0%0%0%0%0%0%0%0%0%0%0%0%0%89%0%89%88%87%72%0%0%0%0%0%0%0%0%0%0%0%0%0%0%0%0%0%0%0%0%
6 mi
10 km
6 mi
10 km
6 mi
10 km
6 mi
10 km
6 mi
10 km
6 mi
10 km
6 mi
10 km
6 mi
10 km
6 mi
10 km
6 mi
10 km
6 mi
10 km
6 mi
10 km
6 mi
10 km
6 mi
10 km
6 mi
10 km
6 mi
10 km
6 mi
10 km
6 mi
10 km
6 mi
10 km
6 mi
10 km
6 mi
10 km
6 mi
10 km
4 mi
6 km
0 mi
0 km
3 mi
5 km
6 mi
9 km
6 mi
9 km
5 mi
8 km
6 mi
10 km
6 mi
10 km
6 mi
10 km
6 mi
10 km
6 mi
10 km
6 mi
10 km
6 mi
10 km
6 mi
10 km
6 mi
10 km
6 mi
10 km
6 mi
10 km
6 mi
10 km
6 mi
10 km
6 mi
10 km
6 mi
10 km
6 mi
10 km
6 mi
10 km
6 mi
10 km
6 mi
10 km
6 mi
10 km

Day/Time
Weather
Condition
Temperature
Dew Point
Pressure
Humidity
Wind Direction
Wind Speed
Prob Precip %
Visibility
Prob Precip % = Probability of Precipitation.